[[{"header":{"parameterUnit":"m.s-1","parameterCategory":1,"la1":30.2992,"la2":30.254,"lo1":-89.0895,"lo2":-89.0443,"dy":0.0025,"dx":0.0025,"nx":19,"ny":19,"refTime":"2026-03-19T09:00:00:Z","depth":0,"parameterNumber":2,"parameterNumberName":"U-component_of_WINDS"},"data":[0,0,0,-0.2225,-0.2226,-0.2258,-0.2258,-0.2313,-0.2313,0,0,0,0,0,0,0,0,0,0,0,-0.2224,-0.2224,-0.2225,-0.2226,-0.2258,-0.2258,-0.2313,-0.2313,0,0,0,0,0,0,0,0,0,0,0,-0.2224,-0.2224,-0.2225,-0.2226,-0.2258,-0.2258,-0.2313,-0.2284,0,0,0,0,0,0,0,0,0,0,-0.225,-0.2256,-0.2224,-0.2225,-0.2227,-0.2258,-0.2258,-0.2282,-0.2285,-0.2304,0,-0.2323,0,-0.2319,-0.2318,-0.2318,0,0,0,-0.222,-0.2254,-0.2255,-0.2225,-0.2227,-0.2258,-0.2242,-0.2284,-0.2288,-0.2309,-0.2323,-0.2325,-0.232,-0.2318,-0.2319,-0.2447,-0.2448,0,0,-0.2219,-0.2234,-0.2253,-0.2258,-0.2254,-0.2241,-0.2243,-0.2286,-0.2303,-0.2323,-0.2326,-0.2321,-0.2319,-0.2319,-0.2446,-0.2447,0,0,0,-0.2218,-0.2233,-0.2233,-0.2256,-0.2261,-0.2242,-0.2245,-0.2301,-0.23,-0.2326,-0.2321,-0.2319,-0.232,-0.2445,-0.2446,-0.2505,0,0,0,-0.2216,-0.2232,-0.2233,-0.2242,-0.2261,-0.2281,-0.2259,-0.2297,-0.2301,-0.2321,-0.2319,-0.2321,-0.2444,-0.2446,-0.2502,-0.2531,0,0,0,-0.2219,-0.2232,-0.224,-0.2243,-0.2257,-0.228,-0.2281,-0.2297,-0.2298,-0.2318,-0.2321,-0.2443,-0.2445,-0.2498,-0.2525,-0.257,0,0,0,-0.2226,-0.2291,-0.2241,-0.2311,-0.2257,-0.2316,-0.2281,-0.2324,-0.2348,-0.232,-0.2444,-0.2446,-0.2497,-0.2522,-0.2567,-0.2612,-0.2631,0,0,-0.2316,-0.2302,-0.2342,-0.2298,-0.2371,-0.231,-0.2391,-0.2398,-0.2386,-0.2427,-0.243,-0.2503,-0.2525,-0.257,-0.2735,-0.2751,0,0,0,-0.2376,-0.2405,-0.2421,-0.2445,-0.2452,-0.2462,-0.2455,-0.2458,-0.2493,-0.241,-0.253,-0.2543,-0.2568,-0.2589,-0.2603,-0.2624,-0.2456,-0.2456,-0.2456,-0.2524,-0.2506,-0.2572,-0.2558,-0.2582,-0.2575,-0.2593,-0.2596,-0.2569,-0.2598,-0.2611,-0.2713,-0.2738,-0.2748,-0.2771,-0.2632,-0.2632,-0.2632,-0.2632,-0.2655,-0.2694,-0.2659,-0.271,-0.2691,-0.2733,-0.273,-0.271,-0.2748,-0.2702,-0.2723,-0.2676,-0.2766,-0.2785,-0.2637,-0.2636,-0.2635,-0.2635,-0.2635,-0.2751,-0.2767,-0.277,-0.2804,-0.2832,-0.2816,-0.2854,-0.2834,-0.2816,-0.2838,-0.285,-0.2849,-0.2846,-0.2845,-0.2845,-0.2845,-0.2846,-0.2846,-0.2846,-0.2851,-0.2852,-0.2887,-0.2902,-0.2915,-0.2931,-0.2926,-0.2939,-0.2949,-0.2932,-0.2932,-0.2904,-0.2778,-0.2748,-0.2852,-0.2851,-0.285,-0.2849,-0.2849,-0.2992,-0.2957,-0.3011,-0.3025,-0.3041,-0.3072,-0.3047,-0.3076,-0.3083,-0.3104,-0.3071,-0.2981,-0.2965,-0.2954,-0.2929,-0.3074,-0.3074,-0.3074,-0.3074,-0.3074,-0.3064,-0.3116,-0.314,-0.3161,-0.3144,-0.3207,-0.3204,-0.3196,-0.3201,-0.3177,-0.3141,-0.3131,-0.3121,-0.3107,-0.3083,-0.3264,-0.3264,-0.3264,-0.3161,-0.3152,-0.3209,-0.3201,-0.3213,-0.3224,-0.3283,-0.3313,-0.3296,-0.3271,-0.3204,-0.3196,-0.3138,-0.312,-0.3094,-0.3072,-0.3028,0,0]},{"header":{"parameterUnit":"m.s-1","parameterCategory":1,"la1":30.2992,"la2":30.254,"lo1":-89.0895,"lo2":-89.0443,"dy":0.0025,"dx":0.0025,"nx":19,"ny":19,"refTime":"2026-03-19T09:00:00:Z","depth":0,"parameterNumber":3,"parameterNumberName":"V-component_of_WINDS"},"data":[0,0,0,1.4744,1.4744,1.4746,1.4746,1.4744,1.4744,0,0,0,0,0,0,0,0,0,0,0,1.4741,1.4741,1.4744,1.4744,1.4746,1.4746,1.4744,1.4744,0,0,0,0,0,0,0,0,0,0,0,1.4741,1.4741,1.4741,1.4744,1.4746,1.4746,1.4744,1.4744,0,0,0,0,0,0,0,0,0,0,1.4743,1.4738,1.4741,1.4741,1.4744,1.4746,1.4746,1.4744,1.4744,1.4741,0,1.4739,0,1.4742,1.4744,1.4744,0,0,0,1.4745,1.4738,1.4741,1.4741,1.4744,1.4746,1.4745,1.4744,1.4744,1.4741,1.4739,1.4739,1.4742,1.4744,1.4744,1.4725,1.4725,0,0,1.4745,1.474,1.4741,1.4741,1.4741,1.4745,1.4745,1.4744,1.4741,1.4739,1.4739,1.4742,1.4744,1.4744,1.4725,1.4725,0,0,0,1.4744,1.474,1.4743,1.4741,1.4741,1.4745,1.4746,1.4741,1.4743,1.4739,1.4742,1.4744,1.4744,1.4725,1.4725,1.4712,0,0,0,1.4744,1.4739,1.4743,1.474,1.4741,1.4742,1.4743,1.4743,1.4743,1.4742,1.4744,1.4744,1.4725,1.4725,1.4713,1.4706,0,0,0,1.4742,1.4739,1.4739,1.4739,1.474,1.4742,1.4743,1.4743,1.4744,1.4744,1.4744,1.4726,1.4725,1.4713,1.4707,1.4699,0,0,0,1.4738,1.4728,1.4739,1.4728,1.474,1.4734,1.4743,1.4739,1.4737,1.4744,1.4725,1.4725,1.4714,1.4708,1.4699,1.4689,1.4685,0,0,1.4722,1.4726,1.472,1.473,1.472,1.4734,1.4723,1.4726,1.473,1.4726,1.4726,1.4712,1.4707,1.4699,1.4666,1.4663,0,0,0,1.4713,1.4709,1.4708,1.4706,1.4708,1.4709,1.4714,1.4715,1.4712,1.4728,1.4708,1.4705,1.47,1.4695,1.4693,1.4688,1.4723,1.4723,1.4723,1.4684,1.469,1.468,1.4686,1.4685,1.469,1.4689,1.4691,1.4698,1.4693,1.4691,1.4671,1.4665,1.4663,1.4658,1.4688,1.4688,1.4688,1.4688,1.466,1.4654,1.4664,1.4658,1.4664,1.4658,1.4663,1.4668,1.4663,1.4673,1.4669,1.4678,1.466,1.4655,1.4687,1.4687,1.4687,1.4687,1.4687,1.464,1.4638,1.464,1.4637,1.4635,1.4641,1.4636,1.4642,1.4648,1.4644,1.4642,1.4642,1.4642,1.4643,1.4643,1.4643,1.4643,1.4643,1.4643,1.4618,1.462,1.4615,1.4617,1.4616,1.4615,1.462,1.4619,1.462,1.4625,1.4625,1.4631,1.4657,1.4663,1.4642,1.4642,1.4642,1.4642,1.4642,1.4589,1.4597,1.4589,1.4588,1.4589,1.4585,1.4594,1.4591,1.4591,1.4588,1.4595,1.4615,1.4618,1.462,1.4625,1.4595,1.4595,1.4595,1.4595,1.4571,1.4574,1.4567,1.4564,1.4563,1.457,1.4559,1.4563,1.4568,1.4568,1.4573,1.458,1.4582,1.4585,1.4588,1.4592,1.4554,1.4554,1.4554,1.4553,1.4556,1.4546,1.4551,1.4552,1.4553,1.4543,1.4539,1.4546,1.4553,1.4567,1.4569,1.4581,1.4584,1.459,1.4595,1.4603,0,0]}]]